Terminal Aerodrome Forecast
Issued by NWS

Home | Current Version | Previous Version | Text Only | Print | Product List | Glossary On
Versions: 1 2 3 4 5 6 7 8 9 10 11 12 13 14 15 16 17 18 19 20 21 22 23 24 25 26 27 28 29 30 31 32 33 34 35 36 37 38 39
000
FTUS46 KOTX 201139
TAFCOE
TAF
KCOE 201139Z 2012/2112 15006KT P6SM VCSH BKN090 BKN110
     FM201500 21009KT P6SM SCT120 BKN200
     FM202200 23007G14KT P6SM VCTS BKN090CB BKN200
     FM210500 21006KT P6SM VCSH BKN080 OVC150
      AMD LTD TO CLD AND VIS=

USA.gov is the U.S. government's official web portal to all federal, state and local government web resources and services.